Location: La Brionne
(46.1728°N, 1.7849°E)
Time: 14:10:03
(UTC+00:00)

Cosmos 2219 Rocket - Visible Passes

Search period start: 22 October 2021 00:00
Search period end: 01 November 2021 00:00
Orbit: 828 x 846 km, 71.0° (Epoch: 22 October)

Date Brightness Start Highest point End Pass type
(mag) Time Alt. Az. Time Alt. Az. Time Alt. Az.
22 Oct 4.4 03:52:24 10° N 03:56:44 22° NE 04:01:04 10° E visible
22 Oct 2.2 05:35:40 10° NNW 05:41:20 77° WSW 05:46:59 10° SSE visible
23 Oct 4.5 03:36:04 10° N 03:40:16 21° NE 03:44:27 10° E visible
23 Oct 2.2 05:19:15 10° NNW 05:24:55 82° WSW 05:30:35 10° SSE visible
24 Oct 4.5 03:19:43 10° N 03:23:47 20° NE 03:27:50 10° E visible
24 Oct 2.2 05:02:49 10° NNW 05:08:30 88° WSW 05:14:11 10° SSE visible
24 Oct 3.8 18:14:10 10° SE 18:15:45 15° SE 18:15:45 15° SE visible
24 Oct 3.9 19:55:38 10° SSW 19:57:34 22° SW 19:57:34 22° SW visible
25 Oct 4.6 03:03:23 10° N 03:07:18 19° NE 03:11:12 10° E visible
25 Oct 2.2 04:46:24 10° NNW 04:52:06 87° ENE 04:57:47 10° SSE visible
25 Oct 3.5 17:58:02 10° SE 18:01:22 17° E 18:01:22 17° E visible
25 Oct 2.8 19:39:12 10° SSW 19:43:11 48° SW 19:43:11 48° SW visible
26 Oct 4.6 02:47:06 10° N 02:50:49 18° NE 02:54:34 10° E visible
26 Oct 2.2 04:30:00 10° NNW 04:35:42 82° ENE 04:41:22 10° SSE visible
26 Oct 3.6 17:41:57 10° SE 17:45:11 16° E 17:46:51 14° ENE visible
26 Oct 2.1 19:22:46 10° SSW 19:28:22 81° WNW 19:28:40 78° NNW visible
26 Oct 4.9 21:09:35 10° W 21:10:29 13° WNW 21:10:29 13° WNW visible
27 Oct 4.7 02:32:09 14° NNE 02:34:19 17° NE 02:37:54 10° E visible
27 Oct 2.3 04:13:57 12° NNW 04:19:16 76° ENE 04:24:56 10° SSE visible
27 Oct 3.7 17:25:53 10° SE 17:28:50 15° E 17:31:47 10° ENE visible
27 Oct 2.1 19:06:21 10° SSW 19:11:57 87° WNW 19:13:56 42° NNE visible
27 Oct 4.6 20:52:56 10° W 20:55:44 18° WNW 20:55:44 18° WNW visible
28 Oct 4.7 02:17:26 16° NE 02:17:50 16° NE 02:21:14 10° ENE visible
28 Oct 2.4 03:59:15 23° NNW 04:02:51 71° ENE 04:08:30 10° SSE visible
28 Oct 3.5 05:42:20 10° WNW 05:46:11 19° W 05:50:00 10° SW visible
28 Oct 2.0 18:49:57 10° SSW 18:55:32 88° ESE 18:58:58 25° NNE visible
28 Oct 4.4 20:36:18 10° W 20:40:17 19° NW 20:40:45 19° NW visible
29 Oct 4.9 02:02:56 14° ENE 02:02:56 14° ENE 02:04:32 10° ENE visible
29 Oct 2.4 03:44:45 45° N 03:46:26 67° ENE 03:52:04 10° SE visible
29 Oct 3.4 05:26:35 13° WNW 05:29:49 20° W 05:33:52 10° SW visible
29 Oct 2.0 18:33:33 10° SSW 18:39:08 82° ESE 18:43:48 15° NNE visible
29 Oct 4.4 20:19:40 10° W 20:23:48 21° NW 20:25:33 18° NNW visible
30 Oct 2.6 03:30:23 61° E 03:30:23 61° E 03:35:37 10° SE visible
30 Oct 3.3 05:12:13 20° W 05:13:27 22° W 05:17:41 10° SSW visible
30 Oct 2.1 18:17:09 10° SSW 18:22:43 77° ESE 18:28:21 10° NNE visible
30 Oct 4.3 20:03:04 10° W 20:07:19 22° NW 20:10:09 15° N visible
31 Oct 3.6 03:16:06 32° SE 03:16:06 32° SE 03:19:10 10° SE visible
31 Oct 3.3 04:57:55 23° WSW 04:57:55 23° WSW 05:01:29 10° SSW visible
31 Oct 2.1 18:00:46 10° SSW 18:06:19 71° ESE 18:11:56 10° NNE visible
31 Oct 4.3 19:46:28 10° W 19:50:51 23° NW 19:54:36 13° N visible
